{"data":{"norad_id":67196,"intl_designator":"2025-304E","name":"STARLINK-36239","alt_names":[],"object_type":"PAYLOAD","status":"ACTIVE","operator":null,"country":"US","launch_date":"2025-12-17","launch_site_code":"AFWTR","launch_vehicle":null,"mission":null,"orbit_class":"UNKNOWN","rcs_meters":null,"size_class":null,"mass_kg":null,"dimensions":null,"purposes":["comms"],"wikipedia_slug":null,"has_3d_model":false,"image_url":null,"decayed_at":null,"tle_current":{"epoch":"2026-05-24T22:51:33.643008Z","epoch_age_seconds":79212,"freshness":"FRESH","line1":"1 67196U 25304E   26144.95247272  .00004183  00000+0  35811-3 0  9994","line2":"2 67196  70.0019 342.3554 0002821 265.4492  94.6345 14.98330963 25306","mean_motion":14.98330963,"eccentricity":0.0002821,"inclination_deg":70.0019,"raan_deg":342.3554,"arg_perigee_deg":265.4492,"mean_anomaly_deg":94.6345,"bstar":0.00035811,"rev_number":2530,"period_min":96.10693735627,"perigee_km":570.09226437351,"apogee_km":574.01356152239,"semimajor_km":6950.1899129479,"source":"CELESTRAK","updated_at":"2026-05-25T13:38:21.507020Z"}}}